Temperature
10 9 7 6 4 3 3 2 2 2 2 2 1 1 0 -0 -1 -2 -4 -5 -5 -7 -8 -8 -9 -9 -10 -10 -10 -11 -11 -11 -11 -11 -11 -11 -11 -11 -11 -10 -10 -9 -8
11 10 8 6 5 4 2 1 1 1 2 2 1 0 -0 -1 -2 -4 -4 -5 -6 -7 -8 -9 -9 -10 -10 -10 -10 -11 -11 -11 -11 -11 -12 -12 -11 -11 -11 -11 -11 -10 -10
12 10 8 7 5 3 2 1 1 2 1 1 1 -0 -1 -1 -3 -4 -4 -5 -7 -8 -8 -9 -10 -10 -10 -10 -10 -11 -11 -11 -11 -11 -12 -12 -12 -12 -12 -11 -11 -11 -10
12 11 9 7 5 3 2 2 1 2 1 1 0 -0 -1 -2 -3 -4 -5 -6 -7 -8 -8 -9 -10 -10 -10 -10 -10 -10 -11 -11 -11 -11 -11 -12 -12 -12 -12 -12 -11 -11 -10
12 11 10 8 5 4 2 2 1 1 1 1 0 -1 -1 -2 -3 -4 -5 -6 -7 -8 -9 -10 -10 -10 -10 -10 -11 -10 -11 -11 -11 -11 -11 -11 -11 -12 -12 -12 -11 -11 -10
12 11 10 8 5 3 3 2 1 1 1 1 -0 -1 -1 -2 -3 -4 -5 -6 -7 -8 -9 -10 -10 -10 -11 -11 -11 -11 -10 -11 -11 -11 -11 -11 -11 -11 -11 -12 -12 -11 -10
12 10 9 7 5 4 3 2 1 1 1 0 -0 -1 -2 -2 -4 -5 -5 -6 -7 -8 -9 -10 -10 -11 -11 -11 -11 -11 -11 -11 -11 -11 -11 -11 -11 -11 -11 -11 -11 -11 -10
12 10 9 7 5 4 3 2 1 1 1 0 -1 -1 -2 -3 -4 -5 -6 -6 -7 -8 -9 -10 -10 -11 -11 -11 -11 -11 -11 -11 -11 -11 -11 -11 -11 -11 -11 -11 -11 -11 -10
11 10 8 6 5 3 2 1 1 1 1 0 -1 -1 -2 -3 -4 -5 -6 -6 -7 -8 -9 -10 -10 -11 -11 -11 -11 -11 -11 -11 -11 -11 -11 -11 -11 -11 -11 -11 -10 -10 -10
12 10 8 6 4 2 1 1 1 1 0 -0 -1 -1 -2 -3 -4 -5 -6 -7 -7 -8 -9 -10 -11 -11 -11 -12 -12 -11 -11 -11 -11 -11 -11 -11 -12 -12 -11 -11 -11 -10 -10
13 10 8 5 3 2 1 1 1 1 0 -0 -1 -1 -2 -3 -4 -5 -6 -7 -7 -8 -9 -10 -10 -11 -11 -12 -12 -12 -11 -11 -11 -11 -11 -12 -12 -12 -12 -12 -11 -10 -10
13 11 8 5 3 2 1 1 1 1 0 -0 -1 -2 -2 -3 -4 -5 -6 -7 -7 -8 -9 -9 -10 -11 -11 -12 -12 -12 -11 -11 -11 -11 -12 -12 -13 -13 -12 -12 -11 -11 -10
12 10 7 5 3 2 1 1 1 1 0 -0 -1 -2 -2 -3 -4 -5 -6 -6 -7 -8 -8 -9 -10 -10 -11 -11 -12 -11 -11 -11 -11 -11 -12 -12 -12 -12 -12 -12 -11 -11 -11
12 9 7 5 3 2 1 1 1 1 0 -0 -1 -2 -2 -3 -4 -5 -6 -6 -7 -7 -8 -9 -9 -10 -10 -11 -11 -11 -11 -11 -11 -11 -12 -12 -12 -12 -12 -11 -11 -11 -10
12 10 7 5 3 2 1 1 1 1 0 -0 -1 -2 -2 -3 -4 -5 -5 -6 -7 -7 -8 -9 -9 -9 -9 -10 -10 -10 -10 -10 -10 -11 -11 -12 -12 -12 -12 -11 -11 -10 -11
12 10 8 5 4 2 1 1 1 1 1 -0 -1 -2 -2 -3 -4 -5 -5 -6 -6 -7 -8 -9 -9 -9 -9 -10 -10 -9 -9 -10 -10 -11 -11 -12 -12 -12 -12 -11 -11 -11 -11
13 11 9 7 5 3 3 2 2 1 1 -0 -1 -2 -2 -3 -4 -4 -5 -5 -6 -7 -8 -8 -9 -9 -9 -10 -9 -9 -9 -10 -10 -11 -11 -12 -12 -12 -11 -11 -12 -12 -12
14 12 10 8 5 4 3 2 1 1 1 -0 -1 -2 -2 -3 -4 -4 -5 -5 -6 -6 -8 -8 -9 -9 -9 -10 -9 -8 -9 -10 -10 -11 -11 -12 -12 -12 -11 -11 -12 -12 -12
14 13 11 9 6 4 3 2 2 1 1 -0 -1 -2 -2 -3 -3 -4 -4 -5 -5 -6 -7 -8 -9 -9 -9 -9 -9 -8 -9 -10 -10 -11 -12 -12 -12 -12 -11 -12 -12 -12 -12
14 12 11 8 6 5 3 2 2 1 1 0 -1 -2 -2 -3 -3 -4 -4 -5 -5 -6 -7 -7 -9 -9 -10 -9 -9 -9 -9 -10 -10 -11 -11 -12 -12 -11 -11 -12 -12 -12 -12
13 12 10 9 7 6 4 3 2 2 1 0 -1 -2 -2 -3 -3 -4 -4 -5 -5 -5 -6 -7 -8 -9 -10 -10 -9 -9 -9 -9 -10 -11 -11 -12 -12 -11 -12 -12 -12 -12 -12
12 11 9 8 7 5 4 3 3 2 1 -0 -1 -1 -2 -3 -3 -4 -4 -4 -5 -5 -5 -6 -7 -8 -9 -10 -10 -9 -9 -10 -10 -11 -11 -11 -11 -11 -12 -12 -12 -12 -13
12 10 8 7 6 5 4 4 3 2 1 -0 -1 -2 -2 -3 -3 -3 -4 -4 -5 -5 -5 -6 -7 -8 -9 -10 -10 -10 -10 -10 -10 -11 -11 -11 -11 -12 -12 -12 -12 -13 -13
12 10 8 6 6 5 5 4 3 2 1 0 -1 -2 -2 -3 -3 -3 -4 -4 -4 -5 -5 -6 -7 -7 -9 -10 -10 -10 -10 -10 -10 -10 -10 -11 -11 -11 -12 -12 -12 -13 -13
12 10 8 7 6 5 5 4 2 2 1 -0 -1 -2 -2 -3 -3 -3 -4 -4 -5 -5 -5 -6 -7 -8 -9 -10 -10 -10 -10 -10 -10 -10 -10 -10 -11 -11 -11 -11 -12 -12 -13
11 10 9 7 6 5 4 4 3 2 1 0 -1 -1 -2 -3 -3 -3 -4 -4 -4 -5 -6 -6 -7 -7 -9 -10 -10 -10 -10 -10 -10 -10 -10 -11 -11 -11 -11 -11 -11 -12 -12
Wind_Speed
13 13 13 12 11 10 8 7 4 2 1 1 2 3 3 4 6 6 7 9 10 12 13 12 13 13 7 7 8 9 10 9 8 11 13 11 11 14 13 11 14 19 23
12 13 13 13 12 11 10 8 6 3 1 1 1 3 3 3 6 5 7 8 10 12 12 11 11 12 8 8 9 9 8 11 9 10 15 14 13 10 13 13 15 16 18
13 14 14 13 12 11 11 8 6 4 3 1 2 3 3 4 3 3 4 8 11 12 12 12 12 12 9 7 9 9 10 12 11 7 8 11 14 15 12 12 14 14 15
11 13 16 15 13 11 10 9 7 5 3 2 2 3 4 4 4 3 4 8 11 12 13 13 13 12 11 7 8 8 9 10 12 10 7 8 11 13 16 10 9 14 15
11 11 14 14 13 12 11 9 7 6 5 3 3 4 4 4 4 4 6 5 8 11 13 13 12 12 11 10 9 8 9 8 10 11 11 11 10 10 11 15 15 12 11
11 10 12 13 11 12 10 9 8 7 6 5 5 5 4 5 6 6 5 5 4 8 11 13 13 14 13 11 9 8 10 9 9 10 10 11 11 11 10 12 14 14 13
11 11 13 13 13 13 11 9 8 8 7 6 5 4 4 5 6 5 5 6 5 5 6 11 12 13 14 14 12 8 10 9 9 10 10 11 11 12 12 12 13 14 13
10 11 13 13 13 13 12 10 10 8 7 6 5 4 5 4 3 5 5 6 5 5 10 12 13 14 15 15 12 7 9 8 8 12 11 10 11 11 11 11 12 12 11
11 11 12 13 13 13 12 11 10 8 7 6 5 5 4 4 5 5 5 4 5 9 11 12 12 13 13 12 10 7 10 9 8 9 10 9 10 11 11 11 11 10 11
11 12 12 13 12 12 11 10 9 8 7 6 6 5 5 6 4 5 7 6 6 9 10 9 10 10 10 10 7 8 10 10 9 8 9 9 10 10 10 10 11 10 9
13 12 12 12 12 11 11 10 9 8 7 7 6 5 5 5 5 6 6 5 6 8 7 8 7 7 7 7 7 9 11 11 10 9 10 11 12 10 10 11 10 10 9
12 12 12 12 12 12 11 11 10 9 8 7 6 5 5 6 6 6 6 6 6 8 9 9 7 9 10 8 9 11 12 11 11 11 10 11 12 11 11 10 11 11 9
11 11 12 13 13 13 12 11 10 9 8 7 6 6 6 6 5 5 5 6 6 7 8 7 9 9 9 10 11 11 12 12 12 11 11 12 11 12 12 12 12 11 10
12 12 13 13 13 13 12 11 10 10 9 8 7 7 6 5 4 5 6 6 6 8 8 8 8 9 9 11 13 13 13 13 12 12 12 11 11 12 12 12 12 11 9
12 14 14 14 14 13 13 12 11 10 9 8 7 7 4 3 4 6 7 8 7 9 7 9 9 9 10 11 14 13 11 11 11 12 11 11 15 18 16 14 11 10 7
13 14 15 15 16 16 14 12 11 10 9 9 8 6 5 5 6 7 8 8 8 8 8 9 9 12 12 22 27 19 8 8 10 10 9 9 11 17 23 25 22 17 11
12 15 17 16 16 16 14 14 12 10 10 9 8 7 6 6 6 8 8 8 8 8 9 8 9 12 16 26 26 25 13 9 8 8 7 8 10 16 12 16 16 16 19
12 14 15 15 13 14 13 12 11 12 11 9 9 8 7 7 7 7 8 9 8 8 8 9 10 12 16 25 26 24 11 7 7 7 6 7 8 13 16 9 8 9 10
11 12 14 13 14 15 15 14 13 12 11 10 10 9 8 7 7 8 9 9 8 8 8 8 9 10 14 23 25 20 6 6 7 7 7 9 8 19 22 12 11 11 10
8 10 12 13 15 15 16 16 15 14 14 13 11 9 9 8 8 9 9 7 7 7 7 8 8 9 10 19 23 20 4 6 6 6 7 13 16 20 21 10 10 13 10
8 10 13 14 15 16 17 17 16 16 14 11 10 9 9 9 8 8 6 6 7 7 7 7 8 9 12 17 21 20 7 6 6 7 6 8 19 20 20 17 10 16 14
10 11 13 13 13 17 18 17 17 14 12 12 11 10 9 8 7 7 7 7 6 6 6 6 8 7 9 14 17 20 18 14 6 8 8 10 20 20 20 15 18 21 17
11 11 12 12 14 17 18 19 16 14 14 13 11 9 9 8 7 7 7 5 5 4 4 5 7 7 7 10 19 19 19 19 10 8 16 18 20 18 13 17 21 17 11
13 12 13 15 16 18 18 16 14 15 15 14 11 9 9 8 7 6 5 4 4 4 4 5 6 7 7 7 8 8 8 13 11 9 13 18 18 15 15 14 12 10 10
12 13 16 18 19 18 18 15 16 17 16 14 12 10 9 7 6 6 5 5 5 5 5 4 4 6 7 10 17 13 9 8 8 9 5 6 8 8 8 8 8 8 9
12 14 18 18 18 18 18 17 17 18 17 14 13 10 8 7 6 5 4 7 7 8 8 7 7 7 11 16 16 17 17 16 15 10 8 9 10 10 10 10 10 9 10
Wind_Direction
198 186 174 161 153 154 163 169 167 153 130 56 331 317 319 308 307 308 326 337 331 325 317 312 313 314 309 306 306 310 310 309 308 312 311 304 298 296 298 304 317 311 312
195 182 172 165 166 169 168 168 165 151 158 132 279 261 270 274 283 298 334 328 319 314 312 310 307 306 304 304 306 309 308 312 316 312 312 312 310 301 307 310 304 308 315
198 183 175 172 172 174 166 164 145 176 189 157 267 289 289 291 314 343 325 312 311 311 308 306 303 303 302 298 301 303 310 312 309 297 300 307 308 311 301 297 300 304 305
201 182 176 176 175 166 143 142 156 193 187 191 246 289 292 298 305 301 285 303 312 313 312 306 305 304 300 293 301 314 304 306 310 308 288 278 288 298 305 302 296 300 302
203 185 174 173 167 148 142 149 166 195 186 193 235 258 275 286 294 297 297 303 310 310 309 307 310 304 299 294 296 300 301 302 302 308 306 299 292 281 289 300 306 305 302
190 174 158 155 146 139 142 153 181 197 185 203 228 244 270 288 299 303 305 304 297 301 306 312 313 306 299 296 296 298 302 301 302 307 304 301 297 294 287 289 296 299 299
173 165 156 158 152 150 154 166 190 201 190 200 222 240 260 272 280 292 296 299 297 298 297 311 305 299 297 300 302 304 304 302 308 311 310 306 299 295 287 282 286 289 292
175 171 167 164 160 162 165 174 194 198 185 197 220 235 254 260 266 278 285 288 287 283 296 303 300 298 301 308 309 306 304 303 306 311 310 311 309 305 298 288 285 288 292
183 173 167 166 166 168 171 179 188 190 186 196 215 232 250 268 269 276 277 273 277 295 302 301 297 299 304 307 312 307 302 300 299 302 303 307 309 308 305 300 295 288 297
182 175 174 173 171 168 170 176 182 187 183 193 215 226 236 252 260 271 275 277 284 296 296 295 297 298 303 308 311 306 299 298 297 300 301 305 306 307 308 308 307 301 297
184 180 177 173 165 160 164 173 182 183 185 197 208 228 247 256 263 268 272 278 288 293 294 296 296 298 299 299 297 295 297 294 295 297 302 302 304 305 310 310 310 311 306
175 173 170 167 166 166 170 180 184 184 188 190 197 224 246 256 261 269 278 288 289 293 294 296 299 302 301 291 287 289 294 288 288 290 292 295 303 303 305 305 305 305 302
166 169 171 175 175 175 179 185 184 182 180 181 197 225 243 253 266 282 291 293 290 291 295 296 297 294 292 290 285 280 281 279 277 280 282 286 291 296 298 297 298 299 303
175 178 182 182 180 180 183 184 181 175 176 181 197 222 239 254 279 297 296 290 287 292 291 290 289 293 293 288 282 278 277 274 272 274 276 278 282 285 288 296 295 297 298
185 189 189 186 182 182 183 182 179 173 175 182 198 217 233 269 289 287 285 283 283 290 285 289 292 294 294 285 279 274 272 271 270 271 273 277 297 310 313 314 311 307 302
200 197 193 189 187 185 183 180 177 172 170 182 196 205 220 244 260 270 274 277 280 283 285 285 289 294 297 301 308 315 296 282 277 274 274 283 302 311 320 318 320 327 320
207 199 197 196 191 185 180 180 176 166 171 183 192 199 212 237 254 271 279 280 283 282 282 282 285 288 294 306 314 322 327 304 298 286 287 305 314 320 303 308 327 327 321
210 200 195 192 183 175 172 170 166 168 175 184 193 199 208 229 247 262 271 275 275 275 276 279 283 287 297 312 319 328 335 311 301 294 294 294 298 308 317 337 327 309 305
208 195 187 180 174 172 169 167 170 172 179 190 196 197 202 219 238 253 262 267 272 278 279 280 284 290 304 317 323 336 324 313 309 307 313 319 307 316 334 347 329 316 309
189 175 169 169 173 172 167 171 177 181 191 194 194 192 198 212 229 243 256 266 276 281 287 292 295 301 306 319 329 338 324 313 314 313 318 326 324 329 340 345 329 322 331
186 169 169 177 179 170 170 180 184 193 192 182 182 190 199 212 227 243 258 274 282 289 296 304 307 308 315 327 330 336 341 320 320 319 317 314 325 336 341 344 333 339 351
190 177 179 182 175 173 177 186 192 188 174 173 179 189 200 215 225 235 255 265 279 295 306 314 311 308 317 328 331 339 344 348 338 325 316 315 330 339 342 342 344 351 349
198 188 184 182 181 181 184 191 189 172 169 172 181 189 201 212 217 226 243 259 273 282 299 307 311 317 320 325 335 339 344 347 346 331 335 338 341 342 338 339 348 351 342
201 190 186 192 193 190 192 192 177 169 170 176 183 190 199 208 214 221 225 232 250 267 284 297 309 316 316 315 320 325 331 339 335 329 335 340 340 342 340 342 342 342 344
200 193 199 203 200 192 192 187 175 171 174 178 184 190 196 199 209 218 217 223 221 231 253 255 278 304 310 316 332 340 335 331 328 342 334 330 334 339 338 338 340 342 346
201 202 207 208 201 192 191 187 177 174 175 181 186 188 191 197 202 208 234 259 249 258 271 276 286 300 311 324 336 339 340 342 349 356 341 341 341 341 340 340 341 344 347
Height
1567 1568 1568 1567 1566 1566 1566 1566 1566 1564 1563 1561 1559 1557 1554 1552 1549 1546 1543 1539 1535 1530 1526 1522 1518 1514 1511 1507 1503 1499 1494 1488 1484 1477 1470 1464 1459 1453 1448 1444 1438 1433 1429
1562 1562 1562 1561 1560 1561 1562 1562 1561 1561 1559 1558 1555 1553 1550 1548 1545 1543 1540 1536 1531 1527 1523 1519 1515 1511 1508 1504 1500 1496 1491 1485 1481 1475 1467 1459 1453 1448 1444 1439 1434 1429 1425
1555 1556 1556 1555 1555 1556 1556 1557 1557 1557 1556 1554 1552 1549 1547 1545 1542 1540 1536 1532 1528 1524 1520 1516 1512 1509 1505 1501 1497 1494 1489 1483 1476 1473 1468 1459 1450 1443 1437 1433 1429 1425 1421
1550 1550 1549 1549 1550 1551 1551 1552 1553 1553 1552 1550 1548 1546 1544 1541 1539 1535 1531 1528 1525 1521 1517 1513 1509 1506 1502 1498 1495 1491 1486 1481 1474 1468 1463 1459 1451 1444 1433 1427 1424 1421 1417
1544 1545 1544 1544 1545 1546 1546 1548 1549 1549 1548 1546 1544 1542 1540 1538 1535 1531 1528 1524 1521 1517 1513 1510 1506 1502 1499 1495 1491 1487 1483 1478 1472 1466 1459 1453 1447 1441 1436 1426 1419 1415 1412
1538 1540 1540 1541 1541 1540 1540 1543 1545 1544 1544 1542 1540 1539 1537 1534 1531 1528 1524 1520 1516 1513 1510 1506 1502 1498 1495 1491 1487 1483 1479 1474 1469 1463 1457 1450 1444 1437 1432 1425 1418 1413 1407
1533 1534 1535 1534 1534 1534 1536 1539 1540 1540 1539 1538 1537 1535 1533 1531 1527 1524 1520 1516 1512 1509 1505 1502 1498 1494 1491 1487 1483 1479 1475 1470 1465 1459 1453 1448 1442 1436 1429 1423 1417 1411 1405
1527 1528 1528 1528 1528 1529 1531 1534 1535 1535 1535 1534 1533 1532 1530 1527 1524 1520 1517 1513 1509 1505 1502 1498 1494 1490 1487 1483 1479 1474 1470 1466 1461 1455 1450 1444 1438 1433 1427 1422 1415 1409 1403
1522 1522 1523 1523 1523 1524 1525 1528 1530 1531 1530 1530 1529 1528 1526 1523 1520 1517 1513 1509 1505 1502 1498 1494 1490 1486 1482 1478 1474 1469 1465 1461 1457 1451 1446 1440 1434 1429 1424 1419 1414 1409 1402
1516 1516 1516 1517 1518 1519 1521 1523 1525 1526 1526 1525 1525 1524 1522 1519 1516 1513 1509 1505 1502 1498 1494 1490 1486 1482 1478 1474 1469 1465 1460 1457 1452 1447 1441 1435 1430 1424 1419 1415 1411 1407 1402
1509 1509 1510 1511 1513 1514 1515 1518 1520 1521 1521 1520 1520 1519 1517 1515 1512 1509 1505 1502 1498 1495 1490 1486 1482 1478 1473 1469 1465 1460 1456 1452 1447 1443 1437 1431 1425 1420 1415 1411 1407 1403 1400
1503 1504 1505 1506 1507 1508 1509 1512 1514 1515 1516 1516 1515 1515 1513 1511 1508 1505 1502 1498 1495 1491 1487 1483 1478 1473 1469 1464 1460 1455 1451 1447 1442 1437 1432 1427 1421 1416 1411 1407 1403 1399 1396
1498 1499 1499 1499 1500 1501 1504 1506 1508 1510 1510 1511 1511 1510 1508 1506 1504 1501 1498 1495 1491 1487 1483 1479 1474 1469 1464 1459 1455 1450 1446 1441 1436 1432 1427 1422 1417 1412 1407 1403 1398 1395 1391
1492 1492 1492 1493 1494 1495 1497 1500 1502 1504 1505 1506 1506 1505 1504 1502 1500 1497 1494 1491 1487 1483 1479 1475 1470 1465 1460 1455 1450 1445 1441 1436 1431 1426 1422 1418 1414 1409 1404 1399 1395 1390 1386
1487 1486 1486 1486 1487 1489 1491 1494 1496 1498 1499 1500 1500 1500 1499 1497 1495 1493 1490 1487 1483 1479 1475 1471 1467 1462 1457 1451 1445 1440 1436 1431 1425 1421 1417 1414 1410 1406 1401 1396 1391 1386 1381
1481 1480 1479 1479 1480 1481 1483 1487 1489 1492 1493 1494 1495 1495 1494 1493 1491 1489 1486 1482 1479 1475 1472 1468 1463 1459 1454 1448 1443 1439 1432 1427 1421 1417 1413 1410 1406 1401 1397 1391 1387 1382 1377
1474 1473 1471 1471 1472 1473 1476 1479 1483 1486 1487 1489 1490 1490 1489 1488 1486 1484 1482 1478 1475 1471 1467 1464 1460 1455 1450 1445 1441 1435 1429 1423 1418 1414 1410 1406 1402 1397 1391 1386 1382 1377 1373
1468 1466 1465 1464 1465 1467 1470 1474 1477 1479 1481 1483 1484 1484 1484 1483 1482 1480 1477 1475 1471 1467 1463 1460 1456 1451 1447 1443 1438 1432 1426 1420 1415 1411 1407 1402 1398 1393 1388 1382 1377 1372 1368
1462 1460 1458 1458 1459 1460 1463 1467 1470 1472 1475 1476 1478 1479 1479 1478 1477 1475 1473 1470 1467 1463 1460 1456 1452 1448 1444 1440 1435 1429 1423 1418 1413 1408 1404 1400 1395 1390 1385 1379 1373 1368 1362
1455 1453 1452 1451 1451 1453 1456 1459 1462 1465 1467 1470 1472 1473 1473 1473 1472 1471 1469 1467 1464 1460 1456 1453 1449 1445 1441 1437 1432 1427 1421 1415 1410 1406 1401 1397 1393 1388 1383 1377 1371 1365 1359
1449 1447 1445 1444 1444 1446 1448 1451 1454 1457 1461 1464 1466 1467 1468 1468 1467 1466 1465 1463 1460 1457 1453 1449 1446 1442 1438 1434 1430 1426 1420 1414 1409 1403 1399 1394 1390 1386 1381 1376 1370 1364 1357
1442 1439 1437 1436 1437 1438 1441 1443 1446 1450 1454 1457 1459 1461 1462 1462 1462 1462 1461 1459 1457 1454 1450 1446 1442 1439 1435 1431 1428 1424 1419 1414 1408 1403 1397 1393 1389 1385 1379 1374 1369 1363 1355
1434 1432 1430 1430 1430 1430 1433 1435 1439 1443 1447 1450 1452 1455 1456 1457 1457 1457 1457 1455 1453 1450 1447 1443 1439 1435 1432 1429 1425 1421 1417 1412 1407 1402 1397 1393 1388 1383 1377 1373 1368 1361 1354
1427 1425 1423 1422 1421 1421 1424 1428 1433 1436 1439 1442 1446 1448 1450 1451 1452 1452 1452 1451 1450 1447 1445 1441 1437 1432 1429 1426 1422 1419 1414 1410 1406 1401 1397 1392 1387 1382 1377 1372 1366 1360 1355
1419 1417 1414 1412 1411 1413 1415 1420 1424 1428 1431 1435 1438 1441 1444 1445 1446 1447 1448 1447 1446 1444 1442 1438 1434 1430 1426 1424 1421 1418 1413 1409 1406 1401 1396 1391 1386 1381 1376 1371 1366 1361 1355
1411 1408 1405 1403 1403 1404 1407 1411 1414 1419 1423 1427 1430 1433 1437 1439 1441 1442 1443 1443 1443 1441 1439 1436 1433 1429 1425 1422 1419 1415 1412 1408 1405 1401 1396 1391 1386 1382 1377 1372 1367 1362 1356